Other Public Products
Issued by NWS Grand Forks, ND

Home | Current Version | Previous Version | Text Only | Print | Product List | Glossary On
Versions: 1 2 3 4 5 6 7 8 9 10 11 12 13 14 15 16 17 18 19 20 21 22 23 24 25 26 27 28 29 30 31 32 33 34 35 36 37 38 39 40 41 42 43 44 45 46 47 48 49 50
000
FPUS83 KFGF 041831
OPUFGF
PRAIRIE TO PINES WEATHER ROUNDUP
NATIONAL WEATHER SERVICE EASTERN NORTH DAKOTA/GRAND FORKS ND
1200 PM CST WED MAR 04 2015

 **SATELLITE DATA USED TO AUGMENT SKY COVER AT AUTOMATED STATIONS**
 *****  WEATHER ACROSS EASTERN NORTH DAKOTA  *****

CITY           SKY/WX    TMP DP  RH WIND       PRES   REMARKS
GRAND FORKS    PTSUNNY    1 -11  57 NW21      30.30R WCI -21
6HR MIN TEMP: -10; 6HR MAX TEMP:   1;

GRAND FORKS AF FAIR       1 -13  53 NW20      30.30R WCI -21
GRAND CITY NWS   N/A      5 N/A N/A NW18        N/A  WCI -15
BUXTON         NOT AVBL
DEVILS LAKE    FAIR      -4 -17  54 NW16      30.28R WCI -25
6HR MIN TEMP: -13; 6HR MAX TEMP:  -6;

FARGO          CLOUDY     1 -11  57 NW14      30.32R WCI -17
6HR MIN TEMP:  -5; 6HR MAX TEMP:   2;

WAHPETON ARPT  CLOUDY     3  -8  60 NW21      30.32R WCI -18
$$

 *****  WEATHER ACROSS CENTRAL AND WESTERN NORTH DAKOTA  *****

CITY           SKY/WX    TMP DP  RH WIND       PRES   REMARKS
JAMESTOWN      CLOUDY    -2 -12  62 NW17G25   30.29R WCI -23
6HR MIN TEMP:  -7; 6HR MAX TEMP:  -2;

BISMARCK       PTSUNNY    0 -15  49 NW15G26   30.35R WCI -19
6HR MIN TEMP:  -4; 6HR MAX TEMP:   0;

MINOT          FAIR      -4 -16  56 NW17G24   30.33R WCI -26
6HR MIN TEMP: -12; 6HR MAX TEMP:  -4;

MINOT AFB      SUNNY     -5 -14  64 NW21      30.31R WCI -29
6HR MIN TEMP: -13; 6HR MAX TEMP:  -5;

GARRISON         N/A     -5 -15  62 NW21      30.32R WCI -29
6HR MIN TEMP: -11; 6HR MAX TEMP:  -5;

WILLISTON      SUNNY     -3 -15  56 N9        30.36S WCI -19
6HR MIN TEMP: -10; 6HR MAX TEMP:   3;

DICKINSON      MOSUNNY    5 -11  47 NW15G21   30.24R WCI -13
6HR MIN TEMP:  -6; 6HR MAX TEMP:   4;

HETTINGER      SUNNY      7 -10  46 NW18G25   30.25R WCI -12
6HR MIN TEMP:  -7; 6HR MAX TEMP:   7; 6HR PCP: TRACE;

$$

 *****  OTHER OBSERVATIONS NORTHEAST NORTH DAKOTA  *****

CITY           SKY/WX    TMP DP  RH WIND       PRES   REMARKS
WALHALLA         N/A     -2 -11  65 NW16      30.31R WCI -23
LANGDON        NOT AVBL
CAVALIER       MOCLDY     0  -9  65 NW20      30.31R HAZE    WCI -22
GRAFTON        NOT AVBL
CANDO          FAIR      -2 -13  60 NW16      30.29R WCI -23
FORT TOTTEN      N/A     -2 -18  47 NW7       29.95  WCI -15
ROLLA          FAIR      -4 -13  65 NW21      30.24R WCI -28
RUGBY          FAIR      -8 -15  71 NW24      30.31R WCI -34
 ***** THE ABOVE OBSERVATIONS ARE NON NWS ARE NOT QUALITY
        CONTROLLED AND MAY MIS-REPORT RAIN FOR SNOW...
$$

 *****  OTHER OBSERVATIONS SOUTHEAST NORTH DAKOTA *****

CITY           SKY/WX    TMP DP  RH WIND       PRES   REMARKS
COOPERSTOWN    NOT AVBL
VALLEY CITY    FLURRIES   0 -11  60 NW15G25   30.29R WCI -20
OAKES            N/A      0  -9  65 NW23      30.31R WCI -24
GWINNER        PTCLDY     3  -9  55 NW16      30.32R WCI -16
SHEYENNE NWR     N/A      1 -14  48 NW15      29.95S WCI -18
BUFFALO        NOT AVBL
WYNDMERE       NOT AVBL
 ***** THE ABOVE OBSERVATIONS ARE NON NWS ARE NOT QUALITY
       CONTROLLED AND MAY MIS-REPORT RAIN FOR SNOW...
$$

  *****  WEATHER ACROSS NORTHERN MINNESOTA  *****

CITY           SKY/WX    TMP DP  RH WIND       PRES   REMARKS
FLAG ISLAND    FAIR      -2 -15  55 NW13      30.16R WCI -21
WARROAD        PTSUNNY   -2 -11  65 NW10      30.19R HAZE    WCI -19
ROSEAU         FAIR      -2 -11  65 W14G20    30.21R HAZE    WCI -21
HALLOCK        PTSUNNY   -2 -11  65 NW17G24   30.28R WCI -24
THF RVR FALLS  CLOUDY    -4  -8  84 NW16      30.25R WCI -25
6HR MIN TEMP: -11; 6HR MAX TEMP:  -4;

HALSTAD          N/A      1 -11  56 NW14        N/A  WCI -17
FOSSTON        FAIR       0 -13  55 NW13G21   30.24R WCI -18
BAUDETTE       FAIR      -4 -14  62 W15G21    30.14R WCI -25
6HR MIN TEMP: -14; 6HR MAX TEMP:  -3;

WASKISH        FAIR       0 -11  60 W13       30.17R WCI -18
CROOKSTON      FAIR       0  -8  71 NW20      30.30R WCI -22
$$
  *****  WEATHER ACROSS CENTRAL AND WEST MINNESOTA  *****

CITY           SKY/WX    TMP DP  RH WIND       PRES   REMARKS
BEMIDJI        FAIR      -4 -14  62 NW15      30.18R WCI -24
PARK RAPIDS    CLOUDY     0 -15  49 NW18      30.17R WCI -21
6HR MIN TEMP: -13; 6HR MAX TEMP:   0;

WADENA         PTSUNNY   -2 -11  65 W14       30.21R HAZE    WCI -21
DETROIT LAKES  PTSUNNY    0  -9  65 NW13G21   30.24R HAZE    WCI -18
MOORHEAD       FAIR       1  -9  60 NW13G20   30.32R WCI -16
FERGUS FALLS   FAIR       0 -13  55 NW16      30.32R WCI -21
ELBOW LAKE     CLOUDY     1 -10  60 NW17G28   30.27R WCI -19
6HR MIN TEMP:  -6; 6HR MAX TEMP:   1;

MORRIS MN        N/A      5  -4  66 NW20      30.28R HAZE    WCI -15
STAPLES        PTSUNNY    0 -13  55 NW16G26   30.20R WCI -21
WHEATON        FAIR       1  -9  60 NW20      30.34R WCI -20
$$
  *****  WEATHER ELSEWHERE ACROSS MINNESOTA  *****

CITY           SKY/WX    TMP DP  RH WIND       PRES   REMARKS
DULUTH         PTSUNNY    1 -12  54 W18G26    30.06R WCI -20
6HR MIN TEMP:  -8; 6HR MAX TEMP:   1; 6HR PCP: TRACE;

INTRNTL FALLS  CLOUDY    -3 -14  59 W15G22    30.12R HAZE    WCI -23
6HR MIN TEMP: -16; 6HR MAX TEMP:  -3;

ELY            FAIR      -2 -18  46 NW12G18   30.05R WCI -20
CLOQUET        PTSUNNY    1 -15  46 NW18G25   30.11R WCI -19
BRAINERD       PTSUNNY    1 -11  57 NW13G24   30.18R WCI -17
6HR MIN TEMP: -12; 6HR MAX TEMP:   1;

HIBBING        CLOUDY    -3 -15  56 NW23G30   30.11R WCI -27
6HR MIN TEMP: -11; 6HR MAX TEMP:  -1;

ALEXANDRIA     CLOUDY     1 -11  57 NW16      30.23R WCI -19
6HR MIN TEMP:  -8; 6HR MAX TEMP:   1; 6HR PCP: TRACE;

SAINT CLOUD    FAIR       5  -8  55 W21G26    30.22R WCI -16
6HR MIN TEMP:  -4; 6HR MAX TEMP:   6;

MINNEAPOLIS    PTSUNNY    8  -6  52 NW14G26   30.25R WCI  -8
6HR MIN TEMP:  -1; 6HR MAX TEMP:   9;

$$

  *****  WEATHER ACROSS SOUTH DAKOTA  *****

CITY           SKY/WX    TMP DP  RH WIND       PRES   REMARKS
SIOUX FALLS    PTSUNNY   12   2  64 NW18      30.28R WCI  -6
6HR MIN TEMP:  -2; 6HR MAX TEMP:  12;

BROOKINGS      NOT AVBL
WATERTOWN      CLOUDY     3  -7  63 NW16      30.26R WCI -16
6HR MIN TEMP:  -8; 6HR MAX TEMP:   4; 6HR PCP: TRACE;

HURON          MOSUNNY    7  -5  57 NW22      30.35R WCI -14
6HR MIN TEMP:  -3; 6HR MAX TEMP:   8;

SISSETON         N/A      3  -8  60 NW22      30.30R WCI -19
ABERDEEN       PTSUNNY    3 -10  54 NW23      30.35R WCI -19
6HR MIN TEMP:   1; 6HR MAX TEMP:   4; 6HR PCP:  0.01;

MITCHELL       SUNNY     11  -4  51 NW22      30.36R WCI  -8
PIERRE         MOSUNNY    9  -4  55 NW20      30.32S WCI -10
6HR MIN TEMP:   3; 6HR MAX TEMP:   9;

MOBRIDGE       CLOUDY     8 -10  43 NW20G26   30.29R WCI -11
RAPID CITY     SUNNY     14   3  61 N25G33    30.21S WCI  -5
6HR MIN TEMP:   1; 6HR MAX TEMP:  14;

$$

  *****  SOME WEATHER IN NEARBY STATES *****

CITY           SKY/WX    TMP DP  RH WIND       PRES   REMARKS
GLASGOW MT     SUNNY      8  -9  45 VRB6      30.28F WCI  -2
6HR MIN TEMP:  -5; 6HR MAX TEMP:   8;

GREAT FALLS MT SUNNY     24  10  55 SW15      30.10F WCI  11
6HR MIN TEMP:   0; 6HR MAX TEMP:  24;

CHEYENNE WY    SUNNY     13   2  61 VRB6      30.06S WCI   4
6HR MIN TEMP:   1; 6HR MAX TEMP:  14; 6HR PCP: TRACE;

SCOTTSBLUFF NE SUNNY     23   2  40 W21       30.19S WCI   8
6HR MIN TEMP:   6; 6HR MAX TEMP:  24;

OMAHA NE       FAIR      31   2  29 NW20G28   30.28F WCI  19
6HR MIN TEMP:  15; 6HR MAX TEMP:  31;

DES MOINES IA  PTSUNNY   22   4  46 NW13      30.29F WCI  10
6HR MIN TEMP:  12; 6HR MAX TEMP:  22;

DAVENPORT IA   FAIR      13   1  59 NW15      30.26R WCI  -3
6HR MIN TEMP:   8; 6HR MAX TEMP:  13;

CHICAGO IL     PTSUNNY   19   8  62 W14G31    30.13R WCI   6
6HR MIN TEMP:  16; 6HR MAX TEMP:  20;

EAU CLAIRE WI  FAIR       8  -8  48 W15       30.19R WCI  -9
6HR MIN TEMP:  -2; 6HR MAX TEMP:   8;

LA CROSSE WI   FAIR      14  -3  47 NW10      30.24S WCI   1
6HR MIN TEMP:   5; 6HR MAX TEMP:  14;

$$

  *****  SOME NATIONAL WEATHER *****

CITY           SKY/WX    TMP DP  RH WIND       PRES   REMARKS



USA.gov is the U.S. government's official web portal to all federal, state and local government web resources and services.